NOAA 16 DEB, 41350

Orbit data source: Space-Track

NOAA 16 DEB, 41350 is space debris in SSO originally from a launch on Thu, 21 Sep 2000 UTC launched from the Air Force Western Test Range (AFWTR). Debris objects in space refer to the collection of defunct objects orbiting the Earth. Examples of debris include non-operational satellites, rocket bodies, and fragments generated from explosions, collisions, or faulty payload assembly.

Loading next visibility...
Identifier
41350, 2000-055HT
Orbit
SSO
Country
Flag of USUS
Related business
Manufacturer
Unknown
Mission
Spacecraft
Bus & Motor
Unknown
Mass
Unknown
Launch date (UTC)
2000-09-21 (25 years ago)
Launch vehicle
Unknown
Launch site
Air Force Western Test Range (AFWTR)
Object type
Payload
Rocket body
Debris
Shape & HBR
Unknown shape, 0.1 m
Radar Cross Section
Small (<0.1 m²)

Expand to show TLE details & history
Last TLE update: 2 days ago

TLE from 2 days ago
0 NOAA 16 DEB
1 41350U 00055HT  25300.51206944  .00009180  00000-0  24960-2 0  9995
2 41350  99.0444 141.7820 0017499 106.0555 254.2565 14.47647018505258
Epoch: 2025-10-27T12:17Z
TLE epoch observation values (Epoch: 2025-10-27T12:17:22.799Z)
Latitude
0.00005°
Longitude
-78.67586°
Altitude
739.683 km
Speed
7.483 km/s
True Right ascension
09h 27m 07s
True Declination
0° 00' 00"
Sunlit
Object was in daylight at epoch
Visualization orbit readout
Latitude
Unknown
Longitude
Unknown
Altitude
Unknown
Speed
Unknown
Apparent Right ascension
Unknown
Apparent Declination
Unknown
Sunlit
N/A
Visualization observer readout
Local Sidereal Time
07:59:24
Azimuth
Unknown
Elevation
Unknown
Doppler factor
Unknown
Orbital elements
Apogee altitude
742.922 km
Perigee altitude
718.043 km
Semi-major axis
7,108.619 km
Eccentricity
0.00175
Inclination
99.0444°
RAAN
141.782°
Arg. of periapsis
106.0555°
True anomaly
254.06361°
Mean anomaly
254.2565°
Eccentric anomaly
254.16005°
Mean motion
3.62131 °/min
Orbital period
99.41 mins
BSTAR
0.002496
Loading maneuver chart data...
Computing Atmospheric mass density...

Documentation

Showing up to 5 results
|